EHI
0 0 0 0 0 0 0 0 0 0 0 0 0 0 0 0 0 0 0 0 0 0 5 15 14 6 1 2 3 4 5 6 8 16 26 35 35 24 12 6 4 4 4
0 0 0 0 0 0 0 0 0 0 0 0 0 0 0 0 0 0 0 0 0 0 3 10 15 9 2 1 1 3 6 6 8 14 25 37 44 39 28 18 11 7 6
0 0 0 0 0 0 0 0 0 0 0 0 0 0 0 0 0 0 0 0 0 0 0 4 9 9 4 1 1 4 9 9 7 9 21 40 54 56 52 43 32 21 14
0 0 0 0 0 0 0 0 0 0 0 0 0 0 0 0 0 0 0 0 0 0 0 1 3 4 3 2 1 5 12 15 12 8 13 31 53 63 65 63 56 44 33
0 0 0 0 0 0 0 0 0 0 0 0 0 0 0 0 0 0 0 0 0 0 0 0 0 1 1 2 2 5 11 18 19 13 7 14 35 56 64 66 66 59 51
0 0 0 0 0 0 0 0 0 0 0 0 0 0 0 0 0 0 0 0 0 0 0 0 0 0 0 2 5 6 7 12 20 20 11 6 16 37 52 56 58 58 55
0 0 0 0 0 0 0 0 0 0 0 0 0 0 0 0 0 0 0 0 0 0 0 0 0 0 0 1 5 8 7 7 11 17 15 7 6 17 32 41 45 45 44
0 0 0 0 0 0 0 0 0 0 0 0 0 0 0 0 0 0 0 0 0 0 0 0 0 0 0 0 2 6 9 6 5 9 14 10 4 5 13 26 32 30 28
0 0 0 0 0 0 0 0 0 0 0 0 0 0 0 0 0 0 0 0 0 0 0 0 0 0 0 0 0 2 5 6 4 4 9 10 5 1 5 16 22 21 20
0 0 0 0 0 0 0 0 0 0 0 0 0 0 0 0 0 0 0 0 0 0 0 0 0 0 0 0 0 0 1 3 3 4 10 12 6 1 3 9 14 17 17
0 0 0 0 0 0 0 0 0 0 0 0 0 0 0 0 0 0 0 0 0 0 0 0 0 0 0 0 0 0 0 1 2 4 11 14 9 4 2 4 11 16 15
0 0 0 0 0 0 0 0 0 0 0 0 0 0 0 0 0 0 0 0 0 0 0 0 0 0 0 0 0 0 0 0 1 2 5 9 10 7 3 4 11 16 14
0 0 0 0 0 0 0 0 0 0 0 0 0 0 0 0 0 0 0 0 0 0 0 0 0 0 0 0 0 0 0 0 0 0 0 3 4 5 4 4 9 13 11
0 0 0 0 0 0 0 0 0 0 0 0 0 0 0 0 0 0 0 0 0 0 0 0 0 0 0 0 0 0 0 0 0 0 0 0 0 1 1 2 4 5 4
0 0 0 0 0 0 0 0 0 0 0 0 0 0 0 0 0 0 0 0 0 0 0 0 0 0 0 0 0 0 0 0 0 0 0 0 0 0 0 0 0 1 1
0 0 0 0 0 0 0 0 0 0 0 0 0 0 0 0 0 0 0 0 0 0 0 0 0 0 0 0 0 0 0 0 0 0 0 0 0 0 0 0 0 0 0
0 0 0 0 0 0 0 0 0 0 0 0 0 0 0 0 0 0 0 0 0 0 0 0 0 0 0 0 0 0 0 0 0 0 0 0 0 0 0 0 0 0 0
0 0 0 0 0 0 0 0 0 0 0 0 0 0 0 0 0 0 0 0 0 0 0 0 0 0 0 0 0 0 0 0 0 0 0 0 0 0 0 0 0 0 0
0 0 0 0 0 0 0 0 0 0 0 0 0 0 0 0 0 0 0 0 0 0 0 0 0 0 0 0 0 0 0 0 0 0 0 0 0 0 0 0 0 0 0
0 0 0 0 0 0 0 0 0 0 0 0 0 0 0 0 0 0 0 0 0 0 0 0 0 0 0 0 0 0 0 0 0 0 0 0 0 0 0 0 0 0 0
0 0 0 0 0 0 0 0 0 0 0 0 0 0 0 0 0 0 0 0 0 0 0 0 0 0 0 0 0 0 0 0 0 0 0 0 0 0 0 0 0 0 0
0 0 0 0 0 0 0 0 0 0 0 0 0 0 0 0 0 0 0 0 0 0 0 0 0 0 0 0 0 0 0 0 0 0 0 0 0 0 0 0 0 0 0
0 0 0 0 0 0 0 0 0 0 0 0 0 0 0 0 0 0 0 0 0 0 0 0 0 0 0 0 0 0 0 0 0 0 0 0 0 0 0 0 0 0 0
0 0 0 0 0 0 0 0 0 0 0 0 0 0 0 0 0 0 0 0 0 0 0 0 0 0 0 0 0 0 0 0 0 0 0 0 0 0 0 0 0 0 0
0 0 0 0 0 0 0 0 0 0 0 0 0 0 0 0 0 0 0 0 0 0 0 0 0 0 0 0 0 0 0 0 0 0 0 0 0 0 0 0 0 0 0
0 0 0 0 0 0 0 0 0 0 0 0 0 0 0 0 0 0 0 0 0 0 0 0 0 0 0 0 0 0 0 0 0 0 0 0 0 0 0 0 0 0 0
Wind_Speed
8 9 8 8 9 8 10 10 11 13 14 14 14 15 15 15 14 12 9 20 23 22 21 21 22 24 24 23 22 22 22 22 22 20 19 19 19 18 18 19 18 18 18
8 9 9 8 8 9 10 9 12 11 11 12 14 15 15 14 13 14 12 13 19 21 21 20 20 23 23 22 22 20 21 23 23 22 21 20 19 19 19 19 18 18 18
8 9 8 7 9 10 11 10 11 8 10 11 13 14 13 13 15 16 15 11 10 16 20 20 19 22 23 22 21 20 19 21 23 23 22 21 20 20 20 19 19 18 18
10 9 7 7 9 9 9 10 10 11 10 10 11 11 11 13 16 16 14 12 9 9 12 19 19 21 23 22 21 20 18 18 20 23 24 23 22 22 21 20 19 19 19
12 9 7 6 8 8 8 10 10 11 12 11 12 12 11 12 14 14 14 14 12 10 7 12 17 18 21 23 22 21 19 18 18 22 25 26 24 23 22 21 20 20 20
12 10 7 8 8 7 8 9 11 10 10 12 13 13 13 13 11 9 11 10 10 10 8 8 8 10 16 21 22 21 21 21 19 19 23 27 26 24 23 22 21 20 20
12 9 8 8 8 7 9 10 11 11 10 10 11 13 11 10 9 6 7 8 9 11 11 8 6 6 7 15 19 20 21 21 21 19 20 25 27 26 24 23 22 21 21
11 10 10 9 8 8 9 9 11 8 9 9 10 11 8 7 5 8 6 7 8 10 11 11 9 7 6 6 9 17 19 20 21 21 20 22 27 29 27 24 23 22 22
10 9 10 9 8 8 8 9 9 10 10 10 7 7 7 7 13 6 5 5 8 10 10 10 11 11 10 6 7 11 17 19 20 21 21 21 25 29 29 25 23 23 22
9 9 11 9 8 8 8 9 9 9 10 10 9 6 7 9 8 10 7 5 8 10 10 10 11 11 10 8 8 11 14 19 21 21 21 22 25 29 30 28 25 23 21
8 9 11 8 9 8 9 10 10 9 8 9 10 9 9 9 9 8 14 12 10 7 8 11 10 9 9 8 7 10 14 18 20 21 19 21 25 28 30 29 27 24 22
6 9 11 8 9 8 9 10 9 10 9 10 10 9 9 8 8 7 11 14 14 11 10 9 9 8 7 7 10 16 15 17 18 18 18 17 20 25 28 28 27 25 24
8 10 11 9 8 8 10 10 10 10 11 11 11 10 9 9 9 9 10 12 15 13 9 7 6 6 8 6 8 17 14 16 17 17 17 16 17 19 22 25 26 27 27
10 10 11 11 10 11 12 11 10 10 10 11 13 12 10 9 9 9 9 11 13 12 9 7 7 8 6 5 8 16 11 13 14 14 14 15 16 17 18 21 24 26 26
11 13 13 12 11 11 11 11 9 11 11 11 11 12 10 9 8 8 9 9 11 14 13 7 5 4 5 6 11 11 12 14 11 12 12 13 14 15 17 18 19 22 24
12 13 13 13 12 12 11 10 11 11 13 12 10 12 12 8 8 8 9 9 10 12 14 7 6 9 11 11 15 12 13 20 12 10 12 11 11 12 13 14 16 17 20
13 13 14 14 14 14 12 11 12 13 13 13 12 12 12 11 9 8 9 9 10 11 14 13 9 9 10 11 10 10 11 11 7 8 11 12 11 11 11 12 13 15 17
12 13 14 14 15 15 13 13 14 13 13 13 13 11 10 9 10 9 9 10 10 11 12 15 9 7 10 9 8 10 11 9 6 6 8 11 12 12 11 12 12 12 14
13 14 14 15 15 15 15 14 13 13 12 10 9 8 9 10 10 9 9 9 8 8 9 11 9 6 6 6 7 8 10 8 7 5 6 9 11 12 12 12 12 12 13
12 13 15 16 17 17 16 13 10 8 6 6 7 8 9 10 12 11 9 10 10 8 6 7 7 6 5 5 4 5 6 6 5 2 3 5 8 11 12 13 13 13 13
14 14 15 17 18 16 10 8 7 8 8 8 8 9 10 15 21 17 12 12 12 9 6 5 5 4 3 2 2 2 5 5 4 2 2 3 4 4 6 10 12 14 14
13 14 15 16 19 16 22 24 17 11 11 10 10 11 11 11 18 23 24 22 20 15 12 8 6 5 4 3 2 2 3 4 4 3 3 2 3 3 4 4 10 14 15
11 12 13 15 17 20 28 27 25 13 11 11 11 11 12 14 13 10 17 21 19 23 21 12 9 8 7 6 5 3 2 3 4 2 2 2 2 2 2 4 13 15 17
9 9 11 13 14 20 28 25 22 12 10 11 12 12 12 13 15 15 13 12 12 14 17 12 10 10 10 8 6 5 3 4 4 2 1 3 2 3 3 4 13 19 23
7 8 9 11 13 17 26 23 19 8 10 11 12 14 15 13 25 25 16 14 13 13 17 22 21 19 20 19 13 4 2 3 2 0 2 3 4 5 5 5 12 24 29
8 10 10 10 11 12 23 24 18 8 9 9 10 13 20 22 26 26 15 14 15 14 14 15 15 16 14 14 17 8 4 2 1 1 1 2 4 5 6 5 8 12 19
Wind_Direction
356 349 343 339 340 339 336 334 331 332 333 331 328 328 323 319 311 310 310 309 311 311 305 280 249 236 228 219 210 205 202 201 201 200 196 193 189 188 190 189 187 184 183
353 348 340 339 342 338 332 330 323 328 327 326 324 323 318 313 311 311 305 304 306 308 310 296 259 238 230 224 218 212 208 206 204 200 198 195 191 189 189 190 189 187 186
349 345 337 340 341 336 333 330 323 324 323 323 320 318 314 313 310 307 304 298 298 304 306 307 281 248 235 228 223 217 214 214 210 203 198 196 192 190 188 189 189 188 187
347 340 332 338 338 336 335 331 332 329 323 319 317 314 312 310 306 301 298 295 294 293 299 301 298 266 244 234 228 222 216 216 217 210 201 197 194 191 189 188 188 188 187
345 338 329 336 337 335 333 333 335 328 323 321 316 312 311 304 297 297 298 297 293 288 281 289 294 284 259 244 235 229 222 218 220 216 207 201 196 192 190 188 187 187 188
342 336 337 335 336 335 332 330 329 326 322 320 318 313 303 293 287 289 299 306 303 305 299 288 288 289 271 251 239 232 227 223 221 221 212 204 198 194 192 189 188 188 188
340 336 343 334 336 333 328 328 329 326 327 324 319 315 297 279 281 308 318 317 326 339 328 316 301 290 282 260 243 235 231 227 224 221 217 208 201 195 193 190 189 189 188
337 342 338 332 331 328 324 327 325 327 324 328 320 318 315 309 333 313 304 311 337 338 329 334 329 324 299 275 251 237 232 231 228 224 219 213 204 197 194 192 191 191 190
330 329 329 326 326 327 323 323 321 328 322 318 312 310 314 321 325 302 304 323 337 326 325 328 334 334 327 304 270 246 232 230 232 229 223 216 209 200 194 191 193 194 191
321 326 326 322 323 323 321 320 328 315 315 315 311 290 293 302 301 310 310 316 317 321 320 324 322 317 318 321 299 268 244 228 228 231 228 219 212 206 197 192 193 194 192
316 322 322 320 321 319 317 314 315 313 310 306 306 304 299 294 278 288 301 312 315 307 312 311 305 302 305 302 306 290 260 238 228 227 229 223 216 210 203 195 192 193 191
317 317 321 319 317 316 316 313 312 309 305 302 301 299 300 295 295 294 294 304 306 307 306 298 293 288 290 298 308 309 283 247 230 222 221 221 218 215 207 198 192 192 193
323 317 319 316 315 312 313 312 310 306 303 301 300 297 294 288 288 289 291 296 297 302 298 290 286 296 300 299 307 317 293 254 231 218 213 213 214 215 210 203 195 193 194
318 313 316 312 310 311 313 309 305 303 303 301 297 295 290 284 281 281 284 292 295 295 290 282 296 279 280 299 319 333 319 272 229 214 208 206 206 208 209 208 201 196 193
319 320 315 310 308 308 307 306 302 303 301 297 295 295 289 284 284 280 277 274 279 288 292 289 284 301 334 326 326 329 324 310 251 204 195 199 201 202 204 207 205 199 194
316 314 314 312 309 308 305 303 303 302 300 296 295 295 292 286 284 281 276 270 263 267 275 278 287 307 310 306 310 316 313 312 278 208 185 184 188 191 194 198 200 199 196
313 315 316 314 311 309 306 303 301 300 298 299 299 295 295 294 292 288 283 274 266 259 265 274 272 278 280 289 297 302 304 302 284 225 190 184 185 185 184 187 192 194 191
314 316 316 314 312 311 307 302 300 300 297 298 299 302 307 310 308 302 295 283 271 263 264 271 270 265 265 271 280 290 293 294 281 244 203 188 187 187 187 186 188 192 190
318 318 319 316 315 312 308 303 296 294 294 298 309 322 327 333 331 324 317 314 296 273 262 265 265 254 253 256 267 275 281 287 277 248 212 194 188 188 189 189 189 191 191
322 324 324 324 321 315 308 305 301 302 318 338 347 347 349 359 352 343 341 341 330 310 281 271 265 254 247 242 235 252 273 274 267 249 202 184 187 189 191 191 191 191 190
335 331 332 332 331 328 339 3 21 28 21 11 2 355 356 12 10 5 6 3 355 354 345 323 299 273 259 259 228 214 253 268 265 227 184 178 172 176 185 194 191 189 188
337 338 339 339 342 351 25 43 46 29 20 12 4 358 357 7 17 10 11 15 12 11 11 2 351 342 336 326 314 250 239 257 249 217 167 158 154 166 171 178 183 182 180
338 341 341 345 347 356 27 38 39 29 18 11 6 2 4 3 21 11 6 13 11 12 18 14 2 354 345 348 329 284 232 247 257 249 146 139 127 136 130 157 166 166 161
338 338 340 347 350 357 19 35 32 21 14 9 3 1 7 359 13 22 5 8 11 8 8 10 4 355 352 352 326 294 284 269 267 279 138 127 118 107 96 120 145 144 139
336 339 345 348 352 350 10 31 35 9 11 5 3 4 9 8 12 21 12 6 9 6 3 7 9 7 5 4 4 337 296 228 218 213 26 114 117 96 79 90 120 127 127
343 347 348 349 349 347 6 25 41 22 13 6 4 1 7 16 13 19 17 7 11 4 356 356 0 1 360 357 6 5 338 293 224 149 10 111 129 114 86 63 97 112 116